TIME,DELAY(SENSOR),PRES,OXYGEN,RAWTEMP,T(OPTODE),TCPHASE,FLUOR,BETA(BETA700),BETA(BETA412),BETA(BETA440),CDOM,C(CSC),ED(ED412.40),ED(ED444.00),ED(ED489.70),ED(ED554.30),LU(LU411.80),LU(LU443.40),LU(LU489.60),LU(LU554.10),COMP,TILTX,TILTY,CHECK
1340854955,5809,886.2899780273438000,43.8792114257812500,664.7302856445312000,4.4721159934997560,54.4796104431152340,52,100,90,79,82,15401,2147756068,2147422729,2148006272,2147875757,2147640228,2147061970,2148255890,2147200758,1441,4,13,23734
1340858551,5809,975.0499877929688000,47.3186798095703100,670.4534912109375000,4.2832159996032715,54.0529899597168000,53,99,90,79,82,15402,2147759945,2147417691,2148007625,2147877120,2147642523,2147062765,2148263643,2147204544,447,4,13,14099
1340862151,5811,979.8599853515625000,47.3120384216308600,671.2382202148438000,4.2572860717773440,54.0638313293457000,52,100,89,79,82,15402,2147758957,2147420534,2148006089,2147877714,2147643465,2147060132,2148260809,2147199744,3258,4,13,22281
1340865751,5807,989.6300048828125000,47.2667503356933600,671.2263793945312000,4.2576751708984375,54.0641288757324200,52,100,85,80,83,15402,2147760000,2147417490,2148008795,2147876736,2147638272,2147062985,2148264740,2147200475,120,4,14,22523
1340869351,5810,1000.7800292968750000,45.9790802001953100,669.7937011718750000,4.3050122261047360,54.2322807312011700,52,100,86,79,82,15404,2147757257,2147418541,2148007177,2147879076,2147642322,2147062848,2148261997,2147198582,116,4,13,30232
1340872951,5810,994.5499877929688000,46.5023689270019500,671.2443237304688000,4.2570838928222660,54.1727714538574200,53,98,91,79,81,15402,2147760027,2147418130,2148006500,2147875638,2147643520,2147061970,2148262765,2147199862,653,4,13,635
1340876551,5807,1000.0000000000000000,46.7495002746582000,671.9688720703125000,4.2331371307373050,54.1514701843261700,53,101,87,80,81,15402,2147764644,2147421056,2148007332,2147874578,2147640237,2147062290,2148263552,2147202194,533,4,13,30821
1340880151,5809,992.5800170898438000,46.8325500488281250,672.9727172851562000,4.1999468803405760,54.1475105285644500,53,101,86,79,83,15399,2147760018,2147420498,2148007561,2147875712,2147641600,2147061257,2148261138,2147199908,523,4,13,55618
1340883751,5810,987.9899902343750000,47.1556015014648440,673.9514770507812000,4.1675758361816410,54.1198081970214840,52,131,89,80,82,15384,2147760054,2147419538,2148007908,2147875958,2147644150,2147061641,2148263954,2147199606,3590,4,13,22801
1340887351,5810,994.8800048828125000,47.3379096984863300,673.9863281250000000,4.1664261817932130,54.0891418457031250,53,100,89,79,82,15404,2147762770,2147420187,2148007488,2147874560,2147642230,2147062006,2148260260,2147195757,260,4,13,53146
1340890951,5809,990.2999877929688000,47.8087806701660160,675.3892211914062000,4.1200070381164550,54.0438919067382800,52,98,90,80,81,15402,2147758043,2147422400,2148007241,2147875940,2147643821,2147056411,2148263872,2147201225,3559,4,13,14298
1340894551,5809,993.7999877929688000,47.7697715759277340,675.2094726562500000,4.1259517669677730,54.0474815368652340,53,100,87,79,82,15400,2147757229,2147421942,2148010139,2147876726,2147642112,2147062253,2148255963,2147199734,100,4,13,2236
1340898151,5809,999.8800048828125000,47.9115409851074200,675.6129150390625000,4.1126022338867190,54.0281791687011700,52,100,86,77,82,15399,2147760301,2147419693,2148009033,2147873782,2147641499,2147057709,2148266020,2147197549,314,4,13,6242
1340901751,5809,1000.8599853515625000,47.5728302001953100,674.2869262695312000,4.1564807891845700,54.0629196166992200,53,110,91,80,83,15400,2147763419,2147418761,2148008585,2147879040,2147641673,2147057801,2148263067,2147196068,3096,4,13,33311
1340905351,5808,999.3200073242188000,47.3267784118652340,674.3917236328125000,4.1530132293701170,54.0952301025390600,53,99,85,79,82,15400,2147760493,2147418998,2148006966,2147875136,2147644022,2147059584,2148267456,2147199753,2910,4,13,38543
1340908951,5809,1001.5499877929688000,46.9346313476562500,673.9409179687500000,4.1679248809814450,54.1450004577636700,52,102,87,80,82,15402,2147758884,2147421604,2148007753,2147877174,2147642395,2147061065,2148261440,2147199405,3565,4,14,63977
1340912551,5810,1006.3499755859375000,46.4046707153320300,672.8790283203125000,4.2030491828918460,54.2063484191894500,54,99,86,80,84,15400,2147759698,2147420662,2148006464,2147876470,2147641965,2147059008,2148263698,2147200338,373,4,13,45415
1340916151,5806,1011.1300048828125000,46.0895385742187500,672.8552246093750000,4.2038350105285645,54.2534904479980500,52,100,92,79,81,15400,2147757394,2147419547,2148010020,2147878107,2147644342,2147063067,2148264685,2147200137,132,4,13,23298
1340919751,5808,1010.5000000000000000,46.6105690002441400,672.5850219726562000,4.2127671241760250,54.1780700683593750,53,98,88,79,81,15398,2147762870,2147419913,2148008822,2147875492,2147640566,2147060662,2148260406,2147199570,307,5,13,9677
1340923351,5811,1000.9899902343750000,46.7234115600585940,673.8703002929688000,4.1702609062194820,54.1748695373535160,52,99,90,78,83,15397,2147759853,2147420196,2148008521,2147874523,2147639570,2147057974,2148259273,2147203017,247,4,13,36478
1340926951,5810,996.3599853515625000,47.0072288513183600,674.1591796875000000,4.1607060432434080,54.1416511535644500,52,102,89,80,82,15400,2147760969,2147420653,2148008182,2147876004,2147644589,2147057654,2148265024,2147199195,331,4,13,6675
1340930551,5807,994.4799804687500000,47.2122001647949200,675.4351196289062000,4.1184859275817870,54.1286315917968750,52,99,89,78,81,15402,2147761033,2147418688,2148009097,2147874688,2147644269,2147065837,2148259090,2147197979,2752,4,13,58553
1340934151,5807,993.9099731445312000,47.3452796936035160,675.8546752929688000,4.1046009063720700,54.1101799011230500,52,99,90,79,84,15398,2147760658,2147423213,2148005970,2147874029,2147641161,2147062080,2148262811,2147198034,3501,4,13,7808
1340937751,5809,994.0499877929688000,48.0474510192871100,676.1036987304688000,4.0963568687438965,54.0178794860839840,52,99,87,79,83,15391,2147761609,2147420662,2148007606,2147878500,2147642916,2147057636,2148267675,2147200036,222,4,13,32323
1340941351,5810,991.5900268554688000,48.0354804992675800,677.1754760742188000,4.0608711242675780,54.0334281921386700,53,99,90,79,81,15387,2147762605,2147415954,2148008502,2147877184,2147642358,2147062692,2148262336,2147195574,123,5,13,37806
1340944951,5809,1007.2100219726562000,48.1589393615722660,676.0260009765625000,4.0989279747009280,53.9991111755371100,53,99,86,78,83,15394,2147761444,2147418221,2148006939,2147876681,2147643346,2147064566,2148260050,2147199314,3082,4,13,34692
1340948551,5809,1012.9299926757812000,46.9758186340332000,673.6995849609375000,4.1759071350097660,54.1410217285156250,52,100,91,79,83,15382,2147759652,2147418441,2148002633,2147878820,2147642130,2147066340,2148267328,2147199954,3478,4,13,24256
1340952151,5808,1010.0000000000000000,46.5027389526367200,673.5541992187500000,4.1807169914245605,54.2024383544921900,53,100,87,80,83,15388,2147762194,2147419547,2148005778,2147876388,2147642285,2147065837,2148263405,2147198208,3515,4,13,30332
1340955751,5809,1021.7800292968750000,46.3238792419433600,671.8629760742188000,4.2366352081298830,54.2060890197753900,53,100,89,79,82,15393,2147758244,2147419693,2148008667,2147877888,2147639808,2147059099,2148260937,2147202816,131,4,13,17011
1340959351,5809,1012.5499877929688000,45.4052085876464840,671.2581176757812000,4.2566280364990230,54.3297691345214840,52,99,88,79,82,15388,2147755776,2147417508,2148006336,2147877348,2147643227,2147060882,2148261193,2147197257,3593,4,14,9263
1340962951,5808,1008.7000122070312000,46.2126312255859400,672.5648193359375000,4.2134342193603520,54.2326393127441400,52,102,85,79,82,15391,2147757769,2147421257,2148006802,2147875931,2147643163,2147063094,2148263222,2147202459,93,5,13,31767
1340966551,5809,1007.7899780273438000,46.3072891235351560,673.6453857421875000,4.1777019500732420,54.2330398559570300,52,98,89,80,82,15392,2147755154,2147423021,2148005394,2147877814,2147642998,2147059931,2148258889,2147196644,304,4,13,53593
1340970151,5809,995.5999755859375000,46.5891494750976560,674.4359741210938000,4.1515460014343260,54.2017707824707000,52,98,85,79,83,15380,2147759670,2147422354,2148006921,2147880502,2147642185,2147066633,2148263323,2147200969,53,5,13,38388
1340973751,5810,1001.0499877929688000,47.3748016357421900,676.0017700195312000,4.0997309684753420,54.1139793395996100,53,99,86,80,81,15390,2147757092,2147418294,2148009691,2147876416,2147641481,2147063277,2148267849,2147197549,3263,4,13,62969
1340977351,5809,997.7800292968750000,47.5875396728515600,676.2479858398438000,4.0915789604187010,54.0867500305175800,53,99,88,79,83,15389,2147756955,2147421750,2148006902,2147877220,2147643264,2147062500,2148263424,2147199954,218,4,13,9233
1340980951,5808,996.6400146484375000,47.6182708740234400,677.2932739257812000,4.0569710731506350,54.0913391113281250,52,98,86,79,83,15388,2147758235,2147420123,2148007460,2147877952,2147641170,2147057600,2148263561,2147196690,2988,4,13,58777
1340984551,5808,1001.9699707031250000,47.8459815979003900,676.9268798828125000,4.0691027641296390,54.0551681518554700,53,99,87,79,82,15388,2147759460,2147422537,2148008868,2147876242,2147645339,2147065810,2148264539,2147198464,303,5,13,62340
1340988151,5809,1001.7500000000000000,47.8875198364257800,677.5081176757812000,4.0498561859130860,54.0557785034179700,53,97,87,79,82,15388,2147760182,2147421385,2148008320,2147875446,2147640704,2147062976,2148256658,2147197997,102,4,13,1408
1340991751,5808,1005.0700073242188000,47.7303390502929700,676.3212280273438000,4.0891551971435550,54.0626487731933600,52,102,87,79,82,15388,2147755474,2147419611,2148006610,2147872676,2147646025,2147064539,2148261833,2147194889,3562,4,14,18724
1340995351,5809,1010.5100097656250000,47.4961509704589840,675.2156982421875000,4.1257500648498535,54.0872116088867200,52,100,89,79,83,15386,2147760658,2147416841,2148006646,2147878601,2147644205,2147064429,2148266166,2147198528,3472,4,14,21098
1340998951,5808,1022.3900146484375000,46.6974296569824200,673.6782226562500000,4.1766171455383300,54.1795997619628900,52,100,92,78,82,15382,2147759616,2147419995,2148008274,2147873408,2147638784,2147062994,2148260598,2147197622,816,4,14,32334
1340999456,5810,1023.6799926757812000,46.8390998840332000,673.1591796875000000,4.1937808990478520,54.1480789184570300,52,100,84,80,81,15390,2147758171,2147419940,2148008493,2147873453,2147642148,2147059867,2148262372,2147199478,29,5,13,1055
